Rbgn^[z[y[W
メイン
   新天体発見情報
     Comet P/2007 VQ11 (Catalina)
投稿するにはまず登録を

スレッド表示 | 新しいものから 前のトピック | 次のトピック | 下へ
投稿者 スレッド
佐藤裕久
投稿日時: 2008-2-3 1:33
モデレータ
登録日: 2005-6-12
居住地: 日本
投稿: 2505
オンライン
Comet P/2007 VQ11 (Catalina)

2008年2月1.1日UT、CatalinaのイメージからA. Boattini によって少し拡散した天体が発見
されNEO Confirmation Pageに掲載された。J. Young (Table Mountain天文台 0.61-m 
Cassegrain反射)は、2月1.2日UTのCCDイメージから確認した。非常に拡散した丸く尾のない
8″のコマがあった。T. Spahrは、2007年11月と12月のいくつかの観測と同一視した。
11月3日、Catalinaスカイサーベイによって小惑星状の天体が発見され2007 VQ11 とその後、
11月6日、紫金山天文台Xu-Yi観測所で観測されたものとリンクされた(MPS 225184参照)。

発見位置は次のとおり、

     2007 UT             R.A. (2000) Decl.       Mag.
     Nov.  3.42085    4 11 40.45   + 3 21 51.5   18.8

軌道要素、位置推算表は次のとおり、

Orbital elements:
    P/2007 VQ11 (Catalina)
Epoch 2008 Feb. 24.0 TT = JDT 2454520.5
T 2008 Feb. 13.55683 TT                                 MPC
q   2.6938084            (2000.0)            P               Q
n   0.07833425     Peri.  277.65290     +0.13790407     -0.98870872
a   5.4096387      Node   164.05741     +0.97189635     +0.12368123
e   0.5020354      Incl.   12.32491     +0.19078773     +0.08460513
P  12.58
From 31 observations 2007 Nov. 3-2008 Feb. 1.

Ephemeris:
    P/2007 VQ11 (Catalina)
Date    TT    R. A. (2000) Decl.     Delta      r     Elong.  Phase   m1
2008 01 25    03 49.55   +04 24.3    2.183    2.698   111.1    19.9  18.0
2008 01 30    03 52.17   +04 58.8    2.238    2.696   107.0    20.5  18.1
2008 02 04    03 55.32   +05 34.7    2.296    2.695   103.0    20.9  18.1
2008 02 09    03 59.00   +06 11.5    2.355    2.694    99.1    21.2  18.2
2008 02 14    04 03.16   +06 48.9    2.415    2.694    95.4    21.4  18.2
2008 02 19    04 07.79   +07 26.5    2.477    2.694    91.7    21.5  18.3
2008 02 24    04 12.84   +08 04.1    2.539    2.695    88.2    21.5  18.3
2008 02 29    04 18.30   +08 41.2    2.601    2.696    84.7    21.5  18.4
2008 03 05    04 24.12   +09 17.8    2.663    2.698    81.3    21.3  18.4
2008 03 10    04 30.30   +09 53.5    2.726    2.700    78.0    21.1  18.5
2008 03 15    04 36.81   +10 28.1    2.788    2.703    74.8    20.8  18.5
2008 03 20    04 43.61   +11 01.4    2.850    2.707    71.6    20.4  18.6
2008 03 25    04 50.69   +11 33.3    2.912    2.710    68.5    20.0  18.7
2008 03 30    04 58.02   +12 03.5    2.973    2.715    65.5    19.6  18.7

Computer: Marsden

(IAUC 8914、MPEC 2008-C02)
スレッド表示 | 新しいものから 前のトピック | 次のトピック | トップ

投稿するにはまず登録を
 
© 1999 Tsutomu Seki.